Location: Corcelles
(47.0295°N, 4.5931°E)
Time: 01:24:56
(UTC+00:00)

Daily predictions for brighter satellites

Satellite Brightness Start Highest point End
(mag) Time Altitude Azimuth Time Altitude Azimuth Time Altitude Azimuth
USA 234 4.4 02:01:14 10° NE 02:05:04 37° NE 02:05:04 37° NE
SL-16 R/B 4.4 02:40:54 16° N 02:40:54 16° N 02:42:19 10° N
ADEOS Rocket 4.5 02:35:18 10° ESE 02:39:57 29° ENE 02:44:40 10° N
IDEFIX/ARIANE 42P 4.1 02:47:47 10° NNE 02:50:20 29° NNE 02:50:20 29° NNE
BREEZE-M DEB (TANK) 4.3 02:55:05 74° ESE 02:55:05 74° ESE 03:09:16 10° ENE
CZ-3B R/B 3.8 03:14:18 46° NNW 03:16:16 65° NNE 03:39:35 10° ESE
MSX 3.8 03:11:08 10° NNE 03:16:26 76° NNE 03:16:26 76° NNE
USA 238 DEB 4.5 03:23:01 25° S 03:26:26 45° ESE 03:32:53 10° NE
Meteor 1-21 4.2 03:30:22 60° S 03:31:23 80° E 03:37:01 10° NNE
NOSS 3-2 (A) 4.0 03:31:07 35° S 03:33:14 51° ESE 03:39:24 10° NE
Geosat 4.1 03:28:51 10° SE 03:33:51 75° ENE 03:35:00 53° N
Tsikada Rocket 3.8 03:34:30 72° WSW 03:34:48 73° W 03:41:00 10° N
ERS-2 3.5 03:34:49 10° SE 03:38:12 38° ENE 03:39:04 33° NE
Cosmos 2344 3.7 03:34:36 32° SSW 03:38:22 70° SE 03:46:16 10° NE
ADEOS II 4.3 03:35:51 10° NNW 03:36:33 13° NNW 03:36:33 13° NNW
Meteor 2-10 3.9 03:40:13 10° N 03:45:23 88° E 03:50:41 10° S
USA 234 4.1 03:44:05 10° ENE 03:50:00 38° N 03:52:25 29° NW
Lacrosse 4 Rocket 4.2 03:47:41 10° SE 03:50:10 16° ESE 03:52:40 10° ENE
Cosmos 1707 3.7 03:51:31 39° NNE 03:51:31 39° NNE 03:54:03 10° N
Cosmos 1867 4.5 03:56:41 32° NW 03:56:41 32° NW 04:01:26 10° NNE
Cosmos 468 4.4 03:56:00 49° SSW 03:57:28 81° WNW 04:02:50 10° NNE
NOSS 3-3 (C) 4.5 03:52:15 17° NW 03:58:19 87° NE 04:06:37 10° SE
DELTA 2 R/B (1) 4.3 03:57:37 37° SSW 03:58:29 39° S 04:03:40 10° ESE
CZ-2C R/B 2.3 03:56:38 10° NNE 04:01:44 81° WNW 04:04:10 31° SSW
Cosmos 44 Rocket 4.5 04:00:52 14° NNW 04:04:59 43° NE 04:09:55 10° ESE
Cosmos 292 Rocket 4.0 04:03:48 10° NNW 04:08:40 69° ENE 04:13:30 10° SSE
CBERS 1 LM4 rocket 4.4 04:04:29 10° NNE 04:09:33 87° ESE 04:14:25 10° SSW
Cosmos 2142 Rocket 4.4 04:03:33 10° NNW 04:09:46 75° W 04:16:01 10° S
Cosmos 1975 Rocket 4.2 04:14:20 28° NNW 04:14:20 28° NNW 04:16:51 10° N
Cosmos 1656 4.2 04:07:10 10° NNW 04:12:49 61° ENE 04:18:27 10° SE
Cosmos 1697 Rocket 4.1 04:07:41 10° NNW 04:12:56 37° NE 04:18:09 10° ESE
PSLV R/B 3.5 04:09:50 10° N 04:14:02 58° WNW 04:14:36 53° WSW
Cosmos 1953 2.2 04:11:16 10° N 04:15:17 84° W 04:19:19 10° S
CREW DRAGON DEMO-1 DEB 3.6 04:19:16 41° N 04:19:16 41° N 04:21:49 10° ENE
GP-B 3.0 04:14:50 10° S 04:19:12 59° W 04:23:37 10° N
ARIANE 5 R/B 4.3 04:15:53 10° NNW 04:17:30 16° NNW 04:17:30 16° NNW
SJ-6F 4.3 04:18:34 10° NNE 04:22:40 87° WNW 04:26:46 10° SSW
ADEOS 3.7 04:17:35 10° NNE 04:22:50 77° ESE 04:28:03 10° S
Abrixas rocket 2.0 04:23:12 69° NE 04:23:12 69° NE 04:25:48 10° ENE
ADEOS Rocket 3.0 04:20:06 10° S 04:25:21 44° W 04:30:38 10° NNW
NOSS 3-2 (C) 3.5 04:24:49 11° SSW 04:30:15 75° SE 04:36:46 10° NE
IDEFIX/ARIANE 42P 4.2 04:28:35 10° NNW 04:31:08 17° NW 04:31:08 17° NW
Cosmos 1980 Rocket 3.9 04:27:47 10° NNW 04:32:42 30° NE 04:37:36 10° ESE
Cosmos 1544 Rocket 4.0 04:29:36 10° NNW 04:33:43 38° W 04:37:50 10° SSW
FENGYUN 3A 3.6 04:31:19 10° NNE 04:36:48 88° WNW 04:42:14 10° SSW
Cosmos 1331 Rocket 4.1 04:31:56 10° NNW 04:36:58 53° WSW 04:42:00 10° S
Cosmos 1908 3.1 04:35:20 10° N 04:39:15 81° W 04:43:09 10° S
CZ-4B R/B 4.0 04:38:15 10° NNE 04:42:37 87° E 04:46:47 10° SSW
Cosmos 2279 Rocket 4.1 04:37:42 10° NNW 04:43:39 48° W 04:49:32 10° SSW
ALOS 2.2 04:39:54 10° N 04:44:34 73° WNW 04:49:13 10° SSW
CZ-4B R/B 1.7 04:41:23 10° S 04:44:43 45° W 04:48:04 10° NNW
ARGOS Delta rocket 4.4 04:39:43 10° NNE 04:45:01 72° E 04:50:28 10° S
KORONAS-FOTON 3.7 04:43:43 10° SSW 04:47:37 68° WNW 04:51:31 10° N
Cosmos 1606 Rocket 4.1 04:47:39 10° N 04:52:06 62° ENE 04:56:31 10° SSE
COSMO-SKYMED 1 2.5 04:49:24 10° SSE 04:53:44 89° WSW 04:58:08 10° NNW
SL-19 R/B 3.3 04:51:24 10° NNE 04:54:18 70° WNW 04:57:05 10° SSW
Cosmos 1269 Rocket 4.0 04:49:05 10° SSW 04:54:23 76° WNW 04:59:44 10° NNE
Cosmos 1484 Rocket 2.9 04:51:47 10° N 04:55:35 49° WNW 04:59:18 10° SSW
Cosmos 1356 Rocket 4.1 04:52:11 10° NNW 04:56:02 34° W 04:59:51 10° SSW
Cosmos 1025 Rocket 3.7 04:53:26 10° SW 04:57:23 32° WNW 05:01:23 10° N
CENTAUR R/B 2.5 04:53:23 10° SW 04:59:22 78° NW 05:06:35 10° NE
Meteor 2-5 Rocket 4.0 04:54:44 10° S 05:00:21 74° E 05:06:08 10° NNE
Lacrosse 5 rocket 3.6 04:58:14 10° S 05:01:07 22° SE 05:04:06 10° ENE
Cosmos 1302 Rocket 4.0 04:58:16 10° NNW 05:03:30 60° WSW 05:08:41 10° S
SJ-12 3.9 05:00:36 10° NNE 05:04:45 82° WNW 05:08:52 10° SSW
Cosmos 1689 Rocket 2.1 05:03:11 10° S 05:06:05 55° W 05:08:59 10° NNW
Cosmos 2228 3.0 05:03:02 10° N 05:07:23 87° W 05:11:46 10° S
Cosmos 1300 2.9 05:06:28 10° N 05:10:17 75° E 05:14:06 10° SSE
ERS-2 3.6 05:09:30 10° SW 05:11:55 17° W 05:13:38 13° WNW
Cosmos 2369 3.8 05:06:53 10° NNW 05:12:36 83° ENE 05:18:16 10° SSE
Cosmos 2058 Rocket 4.1 05:08:29 10° N 05:12:54 51° ENE 05:17:16 10° SSE
Cosmos 1833 Rocket 2.8 05:10:40 10° SSW 05:16:18 84° ESE 05:21:59 10° NNE
USA 238 DEB 4.0 05:10:56 10° WSW 05:17:21 49° NW 05:24:07 10° NE
USA 238 4.0 05:11:01 10° WSW 05:17:27 50° NW 05:24:13 10° NE
Meteor 1-31 Rocket 3.3 05:14:28 10° N 05:18:07 37° WNW 05:21:46 10° SW
Cosmos 1536 Rocket 4.5 05:14:28 10° SW 05:18:20 28° WNW 05:22:13 10° NNW
H-2A R/B 3.5 05:16:34 10° NNE 05:20:19 58° E 05:24:04 10° S
PSLV R/B 4.1 05:16:29 10° S 05:20:33 51° W 05:24:42 10° NNW
MOS 1 Rocket 4.1 05:17:48 10° SSE 05:22:00 50° ENE 05:26:09 10° N
NOSS 3-2 (A) 4.0 05:18:43 10° WSW 05:24:15 41° NW 05:30:37 10° NE
deb Chang Zheng 4 4.3 05:22:25 10° N 05:26:07 29° WNW 05:29:48 10° SW
Cosmos 2082 Rocket 2.9 05:20:39 10° S 05:26:08 59° ESE 05:31:40 10° NNE
Cosmos 1674 3.9 05:24:57 10° SW 05:28:02 23° WNW 05:31:07 10° NNW
Lacrosse 4 Rocket 1.4 05:24:26 10° SW 05:28:24 55° NW 05:32:24 10° NNE
Cosmos 1892 Rocket 3.6 05:27:31 10° S 05:31:51 89° E 05:36:15 10° N
USA 234 4.1 05:26:06 10° E 05:32:11 43° NNE 05:38:16 10° NW
Cosmos 1400 Rocket 2.7 05:28:15 10° NNW 05:32:16 85° W 05:36:12 10° S
SL-16 R/B 4.1 05:27:28 10° N 05:32:20 28° NE 05:37:10 10° ESE
COSMOS 2406 3.3 05:26:51 10° SW 05:32:27 60° WNW 05:38:05 10° NNE
Okean O Rocket 3.6 05:30:59 10° NNE 05:34:59 34° E 05:38:56 10° SSE
USA 116 3.7 05:33:28 10° SSE 05:37:13 83° WSW 05:41:30 10° NNW
CZ-2C R/B 4.2 05:36:45 10° NNW 05:39:06 13° NW 05:41:26 10° W
Aureole 3 3.3 05:36:49 10° NNW 05:40:26 75° W 05:44:56 10° S
ATLAS 3B R/B 3.0 05:34:51 10° SSW 05:41:23 73° SE 05:48:02 10° NE
CZ-3 R/B 3.9 05:39:01 10° WSW 05:49:57 22° SSW 05:54:56 10° SSE
